Regional Weather Roundup
Issued by NWS Kansas City/Pleasant Hill, MO

Home | Current Version | Previous Version | Text Only | Print | Product List | Glossary On
Versions: 1 2 3 4 5 6 7 8 9 10 11 12 13 14 15 16 17 18 19 20 21 22 23 24 25 26 27 28 29 30 31 32 33 34 35 36 37 38 39 40 41 42 43 44 45 46 47 48 49 50
108
ASUS43 KEAX 201010
RWREAX

WEATHER ROUNDUP FOR EASTERN KANSAS AND NORTHWEST MISSOURI
NATIONAL WEATHER SERVICE KANSAS CITY/PLEASANT HILL MO
400 AM CST FRI JAN 20 2017

KSZ040-057-103>105-MOZ028-029-037-043-201100-
...KANSAS CITY METROPOLITAN AREA...

CITY           SKY/WX    TMP DP  RH WIND       PRES   REMARKS
K.C. INTL      FOG       45  43  93 E6        29.55F VSB 1/4
K.C. DOWNTOWN  FOG       46  46 100 E5        29.56F VSB 1
LEES SUMMIT    FOG       46  45  96 SE6       29.57F VSB 1/2
OLATHE - IXD   FOG       45  45 100 E6        29.57F VSB 1/2
OLATHE - OJC   FOG       45  45 100 VRB3      29.57R VSB 1/2
LAWRENCE       FOG       44  44 100 E5        29.57R VSB 1/2

$$

MOZ001>008-011>017-020>025-030>033-038>040-044>046-053-054-201100-
...NORTHERN AND CENTRAL MISSOURI...

CITY           SKY/WX    TMP DP  RH WIND       PRES   REMARKS
ST. JOSEPH     CLOUDY    43  43 100 NE5       29.57F FOG
MOSBY          CLOUDY    45  45 100 E3        29.57S FOG
WARRENSBURG    FOG       45  45 100 CALM      29.57F VSB 1/4
WHITEMAN AFB   FOG       45  45 100 E6        29.55F VSB 1/4
CLINTON        FOG       46  46 100 CALM      29.60S VSB<1/4
SEDALIA        FOG       46  46 100 CALM      29.58F VSB 1/4
WARSAW         NOT AVBL
CHILLICOTHE      N/A     42  42 100 CALM      29.60F
KIRKSVILLE     FOG       40  40 100 CALM      29.60F VSB 1/4

$$

MOZ041-047>049-056>058-063>065-088>090-097-201100-
...EASTERN AND SOUTHERN MISSOURI...

CITY           SKY/WX    TMP DP  RH WIND       PRES   REMARKS
ST. LOUIS INTL FOG       47  46  97 CALM      29.61F VSB 1/4
SPIRIT OF STL  FOG       44  44 100 CALM      29.61S VSB 3/4
COLUMBIA       FOG       45  45 100 SE6       29.58F VSB 1/2
JEFFERSON CITY CLOUDY    47  46  97 CALM      29.59F
ROLLA          CLOUDY    48  48 100 S8        29.57F
OSAGE BEACH    CLOUDY    49  48  97 SW5       29.60S
SPRINGFIELD    CLOUDY    48  47  96 S6        29.60S
BRANSON        FOG       41  41 100 CALM      29.62F VSB<1/4
JOPLIN         CLOUDY    49  49 100 SE6       29.58F FOG
WEST PLAINS    CLOUDY    49  48  97 S3        29.64F

$$

IAZ060-094-KSZ022-034>040-054-083-096-NEZ052-066-093-201100-
...KANSAS...SOUTHEAST NEBRASKA AND IOWA...

CITY           SKY/WX    TMP DP  RH WIND       PRES   REMARKS
TOPEKA         FOG       45  43  93 E3        29.56S VSB 1/4
MANHATTAN      FOG       44  44 100 CALM      29.54F VSB 1/4
EMPORIA        CLOUDY    44  44 100 SE3       29.54F FOG
CHANUTE        CLOUDY    49  47  93 SE8       29.57S FOG
WICHITA        FOG       46  45  96 E6        29.52F VSB 3/4
OMAHA          FOG       37  34  89 CALM      29.58F VSB 1/2
LINCOLN        FOG       39  39 100 W5        29.57F VSB 1/4
FALLS CITY     FOG       40  40 100 NE3       29.57F VSB 1/4
LAMONI         FOG       37  37 100 CALM      29.58F VSB 1/2
DES MOINES     FOG       37  37 100 CALM      29.61F VSB 3/4

$$





USA.gov is the U.S. government's official web portal to all federal, state and local government web resources and services.